Weather History for KM30 - April, 2014

Change the Weather History Date:

Friday, April 11, 2014

  Actual Average (KPAH) Record (KPAH)
Temperature  
Mean Temperature 62 °F 56 °F  
Max Temperature 71 °F 68 °F 87 °F (2001)
Min Temperature 54 °F 45 °F 25 °F (1989)
Degree Days  
Heating Degree Days 2 9  
Month to date heating degree days 118  
Since 1 July heating degree days 3937  
Cooling Degree Days 0 1  
Month to date cooling degree days 11  
Year to date cooling degree days 18  
Growing Degree Days 12 (Base 50)    
Moisture  
Dew Point 50 °F    
Average Humidity 64    
Maximum Humidity 100    
Minimum Humidity 34    
Precipitation  
Precipitation 0.01 in 0.14 in 2.67 in (1944)
Month to date precipitation 1.59  
Year to date precipitation 13.11  
Snow  
Snow 0.00 in 0.00 in T in (1990)
Month to date snowfall 0.0  
Since 1 July snowfall 9.1  
Snow Depth -    
Sea Level Pressure  
Sea Level Pressure 30.03 in    
Wind  
Wind Speed 6 mph (SW)    
Max Wind Speed 10 mph    
Max Gust Speed 17 mph    
Visibility 9 miles    
Events Fog , Rain , Thunderstorm    
T = Trace of Precipitation, MM = Missing Value Source: NWS Daily Summary

Daily Weather History Graph

Daily Weather History Graph

Search for Another Location

Airport or City:

Trip Planner

Search our weather history database for the weather conditions in past years. The results will help you decide how hot, cold, wet, or windy it might be!

Date:

Astronomy

Apr. 11, 2014 Rise Set
Actual Time 6:26 AM CDT 7:26 PM CDT
Civil Twilight 5:59 AM CDT 7:53 PM CDT
Nautical Twilight 5:27 AM CDT 8:24 PM CDT
Astronomical Twilight 4:55 AM CDT 8:57 PM CDT
Moon 4:11 PM CDT (4/11) 4:16 AM CDT (4/11)
Length of Visible Light 13h 53m
Length of Day
13h 00m
Waxing Gibbous, 87% of the Moon is Illuminated
Apr 11
Waxing Gibbous
Apr 15
Full
Apr 22
Last Quarter
Apr 29
New
May 6
First Quarter

Hourly Weather History & Observations

Time (CDT) Temp. Dew Point Humidity Pressure Visibility Wind Dir Wind Speed Gust Speed Precip Events Conditions
12:15 AM 67.6 °F 38.5 °F 34% 29.98 in 10.0 mi SSW 6.9 mph - N/A   Scattered Clouds
12:35 AM 67.3 °F 38.8 °F 35% 29.97 in 10.0 mi South 10.4 mph - N/A   Mostly Cloudy
12:55 AM 66.6 °F 39.6 °F 37% 29.97 in 10.0 mi South 6.9 mph - N/A   Scattered Clouds
1:15 AM 66.2 °F 39.9 °F 38% 29.96 in 10.0 mi South 8.1 mph - N/A   Clear
1:35 AM 65.8 °F 40.5 °F 39% 29.96 in 10.0 mi South 9.2 mph - N/A   Clear
1:55 AM 65.1 °F 41.2 °F 42% 29.96 in 10.0 mi SSW 5.8 mph - N/A   Clear
2:15 AM 64.2 °F 41.5 °F 44% 29.96 in 10.0 mi SSW 6.9 mph - N/A   Clear
2:35 AM 63.9 °F 41.9 °F 45% 29.96 in 10.0 mi SSW 3.5 mph - N/A   Clear
2:55 AM 62.8 °F 42.1 °F 47% 29.95 in 10.0 mi South 5.8 mph - N/A   Clear
3:15 AM 62.8 °F 42.1 °F 47% 29.96 in 10.0 mi SSW 3.5 mph - N/A   Clear
3:35 AM 61.2 °F 43.0 °F 51% 29.96 in 10.0 mi South 4.6 mph - N/A   Clear
3:55 AM 61.7 °F 43.0 °F 50% 29.96 in 10.0 mi South 3.5 mph - N/A   Clear
4:15 AM 61.5 °F 43.2 °F 51% 29.96 in 10.0 mi South 3.5 mph - N/A   Clear
4:35 AM 59.5 °F 44.1 °F 57% 29.96 in 10.0 mi South 6.9 mph - N/A   Clear
4:55 AM 60.6 °F 44.4 °F 55% 29.97 in 10.0 mi SSW 3.5 mph - N/A   Clear
5:15 AM 61.2 °F 45.0 °F 55% 29.98 in 10.0 mi SSW 5.8 mph - N/A   Clear
5:35 AM 62.4 °F 45.5 °F 54% 29.99 in 10.0 mi WSW 5.8 mph - N/A   Clear
5:55 AM 61.7 °F 45.7 °F 56% 30.01 in 10.0 mi WSW 3.5 mph - N/A   Clear
6:15 AM 61.3 °F 46.2 °F 58% 30.02 in 10.0 mi WSW 5.8 mph - N/A   Clear
6:35 AM 60.8 °F 46.6 °F 59% 30.02 in 10.0 mi SW 6.9 mph - N/A   Clear
6:55 AM 60.3 °F 46.8 °F 61% 30.03 in 10.0 mi SW 5.8 mph - N/A   Clear
7:15 AM 60.6 °F 47.3 °F 61% 30.04 in 10.0 mi SW 5.8 mph - N/A   Clear
7:35 AM 61.3 °F 47.5 °F 60% 30.05 in 10.0 mi SW 5.8 mph - N/A   Clear
7:55 AM 62.1 °F 47.8 °F 60% 30.06 in 10.0 mi SW 5.8 mph - N/A   Clear
8:15 AM 62.6 °F 47.8 °F 58% 30.06 in 10.0 mi SW 9.2 mph - N/A   Clear
8:35 AM 63.5 °F 48.2 °F 57% 30.07 in 10.0 mi SW 10.4 mph - N/A   Clear
9:15 AM 64.4 °F 49.1 °F 58% 30.07 in 10.0 mi SW 10.4 mph - N/A   Clear
9:35 AM 65.5 °F 49.5 °F 56% 30.07 in 10.0 mi WSW 9.2 mph 17.3 mph N/A   Clear
9:55 AM 65.7 °F 49.6 °F 56% 30.08 in 10.0 mi WSW 10.4 mph - N/A   Clear
10:15 AM 66.9 °F 49.8 °F 54% 30.08 in 10.0 mi WSW 8.1 mph - N/A   Clear
10:35 AM 66.9 °F 50.5 °F 56% 30.08 in 10.0 mi SW 8.1 mph - N/A   Clear
10:55 AM 67.6 °F 50.5 °F 54% 30.08 in 10.0 mi WSW 9.2 mph - N/A   Clear
11:15 AM 68.0 °F 50.5 °F 54% 30.08 in 10.0 mi SW 5.8 mph - N/A   Clear
11:35 AM 68.5 °F 50.7 °F 53% 30.08 in 10.0 mi SW 9.2 mph - N/A   Clear
11:55 AM 69.3 °F 50.9 °F 52% 30.08 in 10.0 mi SW 9.2 mph - N/A   Clear
12:15 PM 69.6 °F 50.9 °F 51% 30.07 in 10.0 mi SW 6.9 mph 16.1 mph N/A   Clear
12:35 PM 70.9 °F 51.3 °F 50% 30.07 in 10.0 mi West 9.2 mph - N/A   Clear
12:55 PM 70.2 °F 50.9 °F 50% 30.07 in 10.0 mi SW 8.1 mph - N/A   Scattered Clouds
1:15 PM 70.5 °F 51.1 °F 50% 30.06 in 10.0 mi SW 9.2 mph - N/A   Scattered Clouds
1:35 PM 71.4 °F 52.0 °F 50% 30.06 in 10.0 mi WSW 9.2 mph - N/A   Mostly Cloudy
1:55 PM 71.2 °F 51.6 °F 50% 30.06 in 10.0 mi SW 8.1 mph - N/A   Overcast
2:15 PM 70.3 °F 51.8 °F 52% 30.06 in 10.0 mi WSW 8.1 mph 16.1 mph N/A Thunderstorm Overcast
2:35 PM 68.9 °F 51.3 °F 53% 30.06 in 10.0 mi WSW 6.9 mph - N/A Rain Light Rain
2:55 PM 66.2 °F 54.1 °F 65% 30.06 in 10.0 mi SW 5.8 mph - N/A Rain , Thunderstorm Rain
3:15 PM 64.4 °F 55.6 °F 73% 30.06 in 7.0 mi WSW 5.8 mph - 0.01 in Rain Light Rain
3:35 PM 64.9 °F 56.5 °F 74% 30.05 in 10.0 mi Calm Calm - 0.01 in Thunderstorm Mostly Cloudy
3:55 PM 65.7 °F 56.1 °F 71% 30.03 in 10.0 mi South 6.9 mph - 0.01 in   Mostly Cloudy
4:15 PM 65.7 °F 56.5 °F 72% 30.03 in 10.0 mi Calm Calm - N/A   Overcast
4:35 PM 65.8 °F 55.6 °F 69% 30.04 in 10.0 mi Calm Calm - N/A   Scattered Clouds
4:55 PM 66.4 °F 55.9 °F 69% 30.04 in 10.0 mi Calm Calm - N/A Thunderstorm Scattered Clouds
5:15 PM 65.8 °F 56.1 °F 71% 30.03 in 10.0 mi Calm Calm - N/A   Scattered Clouds
5:35 PM 65.7 °F 57.4 °F 75% 30.02 in 10.0 mi Calm Calm - N/A   Clear
5:55 PM 65.7 °F 56.7 °F 73% 30.00 in 10.0 mi Calm Calm - N/A   Clear
6:15 PM 65.5 °F 56.5 °F 73% 30.01 in 10.0 mi Calm Calm - N/A   Clear
6:35 PM 65.7 °F 55.9 °F 71% 30.02 in 10.0 mi Calm Calm - N/A Thunderstorm Clear
6:55 PM 66.4 °F 56.5 °F 70% 30.03 in 10.0 mi Calm Calm - N/A   Clear
7:15 PM 65.8 °F 56.3 °F 71% 30.03 in 10.0 mi Calm Calm - N/A   Clear
7:35 PM 65.3 °F 55.9 °F 72% 30.03 in 10.0 mi Calm Calm - N/A   Clear
7:55 PM 63.0 °F 57.0 °F 81% 30.05 in 10.0 mi Calm Calm - N/A   Clear
8:15 PM 61.2 °F 59.2 °F 93% 30.06 in 10.0 mi Calm Calm - N/A   Clear
8:35 PM 60.4 °F 59.0 °F 95% 30.06 in 10.0 mi Calm Calm - N/A   Clear
8:55 PM 59.0 °F 57.6 °F 95% 30.06 in 7.0 mi Calm Calm - N/A   Clear
9:15 PM 59.0 °F 57.7 °F 96% 30.06 in 4.0 mi Calm Calm - N/A   Clear
9:35 PM 57.9 °F 57.0 °F 97% 30.07 in 3.0 mi Calm Calm - N/A   Clear
9:55 PM 56.8 °F 56.1 °F 97% 30.07 in 1.2 mi Calm Calm - N/A   Mist
10:15 PM 56.5 °F 55.9 °F 98% 30.07 in 0.5 mi Calm Calm - N/A Fog Fog
10:35 PM 55.6 °F 55.2 °F 99% 30.06 in 1.0 mi Calm Calm - N/A   Mist
10:55 PM 56.1 °F 55.6 °F 98% 30.06 in 1.0 mi Calm Calm - N/A   Mist
11:15 PM 54.9 °F 54.7 °F 99% 30.07 in 0.2 mi Calm Calm - N/A Fog Fog
11:35 PM 55.9 °F 55.8 °F 99% 30.08 in 0.5 mi Calm Calm - N/A Fog Fog
11:55 PM 56.7 °F 56.7 °F 100% 30.08 in 3.0 mi Calm Calm - N/A   Clear